Regional Weather Roundup
Issued by NWS

Home | Current Version | Previous Version | Graphics & Text | Print | Product List | Glossary On
Versions: 1 2 3 4 5 6 7 8 9 10 11 12 13 14 15 16 17 18 19 20 21 22 23 24 25 26 27 28 29 30 31 32 33 34 35 36 37 38 39 40 41 42 43 44 45 46 47 48 49 50
660
ASUS43 KLOT 272004
RWRIL

ILLINOIS REGIONAL WEATHER ROUNDUP
NATIONAL WEATHER SERVICE CHICAGO/ROMEOVILLE IL
300 PM CDT THU JUL 27 2017

NOTE: "FAIR" INDICATES FEW OR NO CLOUDS BELOW 12,000 FEET WITH NO
SIGNIFICANT WEATHER AND/OR OBSTRUCTIONS TO VISIBILITY.

* THESE STATIONS ARE NOT UNDER NWS QUALITY CONTROL. THEY ALSO MAY NOT
  REPORT WEATHER SUCH AS PRECIPITATION OR FOG.

ILZ001-002-007-009-015-016-024-272100-
NORTHWEST ILLINOIS

CITY           SKY/WX    TMP DP  RH WIND       PRES   REMARKS
MOLINE         PTSUNNY   84  71  65 N6        29.94S HX  89
STERLING*      MOSUNNY   84  73  69 NE10      29.95S HX  90
SAVANNA*       MOSUNNY   83  69  62 N12       29.96S HX  87
$$

ILZ003-004-008-010-011-017-018-272100-
NORTH CENTRAL ILLINOIS

CITY           SKY/WX    TMP DP  RH WIND       PRES   REMARKS
ROCKFORD       MOSUNNY   85  63  47 NE12      29.97S HX  86
FREEPORT*      SUNNY     81  64  57 NE12G18   29.99S HX  82
ROCHELLE*      CLOUDY    80  69  69 N13       29.96S HX  83
DE KALB*       MOSUNNY   81  67  63 NE15G21   29.97S HX  83
PERU*          CLOUDY    81  71  71 N12G17    29.92F HX  85
$$

ILZ005-006-012>014-019>023-272100-
NORTHEAST ILLINOIS

CITY           SKY/WX    TMP DP  RH WIND       PRES   REMARKS
CHICAGO-OHARE  PTSUNNY   79  66  64 NE15      29.94S HX  81
CHICAGO-MIDWAY MOSUNNY   80  69  69 N12G20    29.93S HX  83
AURORA         MOSUNNY   82  71  69 NE16G23   29.94F HX  86
LANSING*       CLOUDY    74  68  79 N10       29.94S
JOLIET*        MOSUNNY   84  71  65 N8        29.92S HX  90
WAUKEGAN       SUNNY     77  62  59 N14G20    29.96S
DUPAGE AIRPORT PTSUNNY   82  68  62 N16G24    29.94S HX  85
WHEELING       SUNNY     78  66  66 N13G23    29.97S HX  80
MORRIS*        CLOUDY    82  71  68 NE5       29.91S HX  87
ROMEOVILLE*    MOSUNNY   82  67  59 NE14      29.92S HX  85
NORTHERLY ISL    N/A     75  68  78 MISG        N/A
$$

LMZ740>746-272100-
SOUTHERN LAKE MICHIGAN

STATION/POSITION SKY/WX   TEMP    WIND        PRES    VSBY  WAVE
                          AIR SEA DIR/SP/G                  HT/PER
                          (F)     (DEG/KT/KT) (MB)    (MI)  (FT/S)
SOUTHERN BUOY              70 71   10/ 14/ 17 1014.0          1/ 3
WILMETTE HARBOR            71 72  350/ 14/ 19   N/A           3/ 4
HARRISON CRIB              72     360/ 18/ 19   N/A
BURNHAM HARBOR             74                   N/A
CALUMET HARBOR             73     340/ 12/ 19 1013.4F
BURNS HARBOR               73      10/ 12/ 15 1013.9S
MICHIGAN CITY              73     360/ 14/ 16   N/A
MICHIGAN CITY 6N           73 75   10/ 14/ 17   N/A           3/ 3
ST. JOSEPH                 74 74   30/ 14/ 17 1012.8F         3/ 3
$$

ILZ025>027-034>036-040-047-049-050-058-095>099-272100-
WEST-CENTRAL ILLINOIS

CITY           SKY/WX    TMP DP  RH WIND       PRES   REMARKS
QUINCY         CLOUDY    83  73  72 N12       29.92F HX  89
GALESBURG*     MOSUNNY   83  72  69 N8        29.94F HX  88
MACOMB*        MOSUNNY   82  73  72 N9        29.95F HX  88
JACKSONVILLE*  LGT RAIN  79  74  86 NW9       29.90F HX  82
PITTSFIELD*    PTSUNNY   82  75  79 N9        29.92F HX  89
$$

ILZ028>032-037-038-041>044-048-051>054-059>061-272100-
CENTRAL ILLINOIS

CITY           SKY/WX    TMP DP  RH WIND       PRES   REMARKS
PONTIAC        PTSUNNY   83  76  80 N7        29.92S HX  90
BLOOMINGTON    PTSUNNY   83  73  72 N10       29.92F HX  89
DECATUR        PTSUNNY   81  73  76 SW7       29.89F HX  86
PEORIA         PTSUNNY   83  74  74 N7        29.91F HX  89
LACON*         PTSUNNY   82  74  76 N7        29.91F HX  89
LINCOLN*       CLOUDY    85  74  70 N7        29.89F HX  92
SPRINGFIELD    LGT RAIN  81  78  91 NW5       29.90F HX  89
TAYLORVILLE    CLOUDY    79  76  90 SW7       29.91F HX  84
$$

ILZ033-039-045-046-055>057-062-063-272100-
EAST-CENTRAL ILLINOIS

CITY           SKY/WX    TMP DP  RH WIND       PRES   REMARKS
CHAMPAIGN      PTSUNNY   80  76  87 S9        29.90F HX  86
RANTOUL*       CLOUDY    85  74  69 N8        29.89F HX  92
MATTOON        CLOUDY    76  76 100 SW5       29.90F
PARIS*         CLOUDY    79  74  86 W10       29.91F HX  82
$$

ILZ079-100>102-272100-
SOUTHWEST ILLINOIS

CITY           SKY/WX    TMP DP  RH WIND       PRES   REMARKS
ALTON          CLOUDY    79  75  89 SW9       29.92F HX  82
BELLEVILLE     CLOUDY    82  75  79 SW6       29.92F HX  89
CAHOKIA*       PTSUNNY   84  74  71 VRB3      29.90F HX  91
SPARTA*        CLOUDY    82  74  76 SW8       29.93F HX  88
$$

ILZ064>066-069>071-074>076-080>082-084>086-088>090-092>094-272100-
SOUTH-CENTRAL ILLINOIS

CITY           SKY/WX    TMP DP  RH WIND       PRES   REMARKS
CARBONDALE     CLOUDY    85  76  74 NW3       29.92F HX  94
CAIRO*         CLOUDY    86  76  73 W12       29.92F HX  96
EFFINGHAM*     CLOUDY    83  75  78 SW7       29.92F HX  90
MARION         PTSUNNY   84  82  94 SE6       29.94F HX 101
MT. VERNON     PTSUNNY   83  75  77 SW5       29.92F HX  90
CENTRALIA*     CLOUDY    84  76  78 W9        29.91F HX  93
SALEM*         CLOUDY    82  74  77 W6        29.91F HX  89
METROPOLIS*    CLOUDY    88  76  67 W5        29.93S HX 100
$$

ILZ067-068-072-073-078-083-087-091-272100-
SOUTHEAST ILLINOIS

CITY           SKY/WX    TMP DP  RH WIND       PRES   REMARKS
LAWRENCEVILLE  CLOUDY    85  75  72 VRB3      29.91F HX  93
FLORA*         LGT RAIN  80  75  83 NW12      29.91F HX  85
FAIRFIELD*     CLOUDY    83  75  78 CALM      29.91F HX  90
HARRISBURG*    CLOUDY    84  76  76 N3        29.93S HX  92
ROBINSON*      CLOUDY    81  74  77 W9G18     29.91F HX  86
CARMI*         CLOUDY    82  77  85 CALM      29.92F HX  89
$$

ABBREVIATIONS USED IN REMARKS
   TC - TEMPERATURE IN CELSIUS
  WCI - WIND CHILL INDEX
   HX - HEAT INDEX
  VSB - VISIBILITY
$$





USA.gov is the U.S. government's official web portal to all federal, state and local government web resources and services.